KLOMKFDY

Guest
Details From KLOM - Wings Fld
To KFDY - Findlay
Flight Number -
Tags Generated
Created
Modified
Stats Distance 387 nm / 717 km
Max Altitude 0 ft / 0 m
Waypoints 3
Social Downloads 1
Likes 0
Share VATSIM

Download

Looking for another format? Having issues loading an existing format? Contact us
Advertisement - Login to hide

Notes

Generated

Route

KLOM MAZKY KFDY

ID Type Via Altitude Latitude Longitude Leg Dist Tot Dist Heading (true) Name
O KLOM APT - 0 ft / 0 m 40.13451˚ -75.27043˚ - 0 nm - -
MAZKY FIX - 0 ft / 0 m 40.98950˚ -83.42036˚ 375 nm 375 nm 281° / 275° -
O KFDY APT - 0 ft / 0 m 41.01140˚ -83.68121˚ 11 nm 387 nm 276° / 276° -

Altitude Profile

Advertisement - Login to hide

Weather


0- 5 10 15 20 25 30 35+ Temperature / ° C

Clouds and Precipitation
Forecast for 2018-05-21 00:00 UTC. Updated 3 hours ago

Ground ~20,000 ft ~40,000 ft Winds

KLOM

Details ICAO KLOM (BBX)
Name Wings Field
Region United States
Timezone America/New_York (UTC-4.0)
Stats Elevation 301 ft / 92 m (AMSL)
Location 40.137564° -75.265131°
Runways 1
Magnetic Variation 12.100° W

METAR

KLOM 210215Z AUTO 01004KT 10SM CLR 20/16 A3008 RMK AO1

Decode

TAF

Not found

Departure Runways

ID Width Length Bearing (true) Bearing (mag) Surface Threshold Offset Overrun Length
06 75 ft / 23 m 3,703 ft / 1,129 m 53.00° 65.10° Asphalt 177 ft / 54 m 102 ft / 31 m
24 75 ft / 23 m 3,703 ft / 1,129 m 233.01° 245.11° Asphalt 0 ft / 0 m 0 ft / 0 m

KFDY

Details ICAO KFDY (FDY)
Name FINDLAY
Region United States
Timezone America/New_York (UTC-4.0)
Stats Elevation 813 ft / 248 m (AMSL)
Location 41.013601° -83.668731°
Runways 2
Magnetic Variation 6.840° W

METAR

KFDY 210153Z AUTO 05011KT 10SM CLR 17/13 A3015 RMK AO2 SLP202 T01720133

Decode

TAF

KFDY 202330Z 2100/2124 06008KT P6SM SCT050 FM210300 06008KT P6SM BKN060 FM211800 09008KT P6SM VCTS BKN035CB OVC045 FM212300 07008KT 5SM -TSRA BKN030CB OVC045

Decode

Destination Runways

ID Width Length Bearing (true) Bearing (mag) Surface Threshold Offset Overrun Length
07 98 ft / 30 m 5,889 ft / 1,795 m 68.59° 75.43° Asphalt 325 ft / 99 m 0 ft / 0 m
18 98 ft / 30 m 6,504 ft / 1,982 m 180.30° 187.14° Asphalt 0 ft / 0 m 0 ft / 0 m
25 98 ft / 30 m 5,889 ft / 1,795 m 248.61° 255.45° Asphalt 1,001 ft / 305 m 0 ft / 0 m
36 98 ft / 30 m 6,504 ft / 1,982 m 0.30° 7.14° Asphalt 0 ft / 0 m 0 ft / 0 m